Content
SEND FEEDBACK

Daily
Averages
Monthly
Summary
Canada

MONTREAL, QUEBEC


Home > North America > Canada > Quebec
Elevation: 118 feet     Latitude: 45 28N     Longitude: 073 45W

WEATHER
 
SELECT A DAY
Number of Records: 203,406;   Date Range: 1/1/95 - 12/19/14
 
SHARE

PRINT THIS DATA

[ ← Previous Day ]
WEATHER ALMANAC - OCTOBER 29, 2013
[ Next Day → ]
[ °C ]   °F
Weather ElementAverageHighLow
Temperature30.9 °F37.4 °F (3:00 pm)24.8 °F (4:00 am)
Dewpoint22.1 °F23 °F (5:00 am)21 °F (2:00 am)
Humidity69 %86 % (4:00 am)47 % (2:00 pm)
Barometer30.44 in30.50 in (9:00 am)30.37 in (11:00 pm)
Wind Speed5.6 mph11.5 mph (4:00 pm)
Weather ElementAverage
Visibility21.5 mi
Wind DirectionWSW (258.6 °)

Weather ElementTotal
Precipitation---
Heating Degree Days33.9 (Base 65)
Averaged from 28 records on October 29, 2013
WEATHER CONDITIONS BREAKOUT
WIND DIRECTION BREAKOUT
WEATHER BY HOUR - OCTOBER 29, 2013
[ °C ]   °F
Local TimeTemperatureDewpointHumidityBarometerVisibilityWind DirectionWind SpeedGust SpeedPrecipitationEventsConditions
1:00 AM26.6 °F21.2 °F80 %30.43 in20.0 miWSW (250°)2.3 mphClear
2:00 AM26.0 °F21.0 °F74 %30.43 in15.0 miNW (320°)3.5 mph
2:00 AM26.6 °F21.2 °F80 %30.43 in15.0 miNW (320°)3.5 mphClear
3:00 AM26.6 °F21.2 °F80 %30.43 in15.0 miWNW (300°)2.3 mphClear
4:00 AM24.8 °F21.2 °F86 %30.43 in15.0 miNW (320°)5.8 mphClear
5:00 AM26.6 °F23.0 °F86 %30.44 in15.0 miWNW (300°)4.6 mphPartly Cloudy
6:00 AM26.6 °F21.2 °F80 %30.46 in15.0 miNW (310°)4.6 mphPartly Cloudy
7:00 AM26.6 °F23.0 °F86 %30.47 in15.0 miNW (310°)5.8 mphPartly Cloudy
8:00 AM28.0 °F23.0 °F76 %30.49 in28.0 miNW (310°)5.8 mphMostly Cloudy
8:00 AM26.6 °F23.0 °F86 %30.48 in30.0 miNW (310°)5.8 mphMostly Cloudy
9:00 AM28.4 °F23.0 °F80 %30.50 in15.0 miNW (310°)3.5 mphMostly Cloudy
10:00 AM32.0 °F23.0 °F69 %30.50 in15.0 miNNW (340°)4.6 mphMostly Cloudy
11:00 AM32.0 °F21.2 °F64 %30.50 in30.0 miWSW (250°)6.9 mphMostly Cloudy
12:00 PM33.8 °F21.2 °F60 %30.50 in30.0 miWSW (250°)5.8 mphMostly Cloudy
1:00 PM33.8 °F23.0 °F65 %30.47 in30.0 miVariable2.3 mphMostly Cloudy
2:00 PM35.0 °F22.0 °F47 %30.47 in28.0 miWSW (240°)9.2 mphMostly Cloudy
2:00 PM33.8 °F21.2 °F60 %30.46 in30.0 miSW (230°)9.2 mphMostly Cloudy
3:00 PM37.4 °F23.0 °F56 %30.43 in30.0 miSSW (210°)5.8 mphPartly Cloudy
4:00 PM37.4 °F23.0 °F56 %30.40 in30.0 miSSW (210°)11.5 mphPartly Cloudy
5:00 PM37.4 °F23.0 °F56 %30.42 in30.0 miWSW (250°)8.1 mphPartly Cloudy
5:30 PM35.6 °F23.0 °F60 %30.39 in30.0 miSW (220°)9.2 mphScattered Clouds
6:00 PM33.8 °F23.0 °F65 %30.40 in30.0 miWSW (250°)6.9 mphPartly Cloudy
7:00 PM32.0 °F23.0 °F69 %30.41 in15.0 miWSW (240°)4.6 mphPartly Cloudy
8:00 PM31.0 °F21.0 °F55 %30.40 in15.0 miWSW (240°)9.2 mph
8:00 PM30.2 °F21.2 °F69 %30.39 in15.0 miWSW (240°)8.1 mphClear
9:00 PM33.8 °F21.2 °F60 %30.39 in15.0 miSW (230°)4.6 mphClear
10:00 PM32.0 °F21.2 °F64 %30.38 in15.0 miWest (260°)2.3 mphClear
11:00 PM32.0 °F21.2 °F64 %30.37 in15.0 miSW (220°)2.3 mphMostly Cloudy
Hourly data recorded from CYUL, located miles away from Montreal, Quebec







STORIES FROM OUR PARTNERS